Home > Weather > Charleroi > Past weeks

Flag for Belgium Weather for the Past 2 Weeks in Charleroi, Belgium

Now
46 °F

Partly sunny.


Feels Like: 38 °F
Forecast: 39 / 49 °F
Wind: 25 mph from Southwest

Location: Charleroi / Gosselies

Current Time: Feb 8, 2016 at 11:29:29 AM

Latest Report: Feb 8, 2016 at 10:50 AM


Visibility: N/A

Pressure: 29.33 "Hg

Humidity: 71%

Dew point: 37 °F

Location of CharleroiLocation

Historic Weather in Charleroi — Graph

°F

Charleroi Temperature Yesterday

Maximum temperature yesterday: 52 °F (at 12:50 AM)
Minimum temperature yesterday: 43 °F (at 8:50 AM)
Average temperature yesterday: 46 °F

High & Low Weather Summary for the Past Weeks

 TemperatureHumidityPressure
High57 °F (Jan 25, 1:50 PM)100% (Jan 24, 11:50 AM)30.45 "Hg (Jan 24, 11:50 AM)
Low36 °F (Feb 4, 1:20 AM)41% (Jan 25, 1:50 PM)29.30 "Hg (Feb 8, 4:50 AM)
Average46 °F85%30.05 "Hg
* Reported Jan 24 10:20 AM — Feb 8 10:20 AM, Charleroi, Weather by CustomWeather, © 2016

Note: Actual official high and low records may vary slightly from our data, if they occured in-between our weather recording intervals... More about our weather records

Advertising

Charleroi Weather History for the Previous 24 Hours

 ConditionsComfort  
Time TempWeatherWind HumidityBarometerVisibility
10:20 AM
Mon, Feb 8
48 °FPassing clouds.25 mph71%29.30 "HgN/A
9:50 AM46 °FScattered clouds.20 mph82%29.30 "HgN/A
9:20 AM46 °FPartly sunny.23 mph82%29.33 "HgN/A
8:50 AM46 °FBroken clouds.23 mph82%29.30 "HgN/A
8:20 AM46 °FBroken clouds.24 mph82%29.30 "HgN/A
7:50 AM46 °FLight rain. Passing clouds.24 mph87%29.30 "HgN/A
7:20 AM46 °FLight rain. Passing clouds.26 mph87%29.30 "HgN/A
6:50 AM46 °FPassing clouds.17 mph87%29.30 "HgN/A
6:20 AM46 °FLight rain. Partly cloudy.26 mph93%29.30 "Hg6 mi
5:50 AM48 °FLight rain. Partly cloudy.26 mph94%29.33 "Hg5 mi
5:20 AM46 °FLight rain. Partly cloudy.28 mph93%29.30 "Hg4 mi
4:50 AM45 °FLight rain. Partly cloudy.24 mph93%29.30 "Hg4 mi
4:20 AM45 °FLight rain. Passing clouds.25 mph93%29.33 "HgN/A
3:50 AM45 °FLight rain. Passing clouds.28 mph93%29.36 "HgN/A
3:20 AM45 °FPassing clouds.29 mph87%29.39 "HgN/A
2:50 AM45 °FPassing clouds.28 mph87%29.39 "HgN/A
1:50 AM45 °FSprinkles. Passing clouds.26 mph81%29.45 "HgN/A
1:20 AM45 °FPassing clouds.26 mph76%29.47 "HgN/A
12:50 AM45 °FPassing clouds.24 mph76%29.47 "HgN/A
12:20 AM45 °FSprinkles. Passing clouds.26 mph71%29.50 "HgN/A
11:50 PM
Sun, Feb 7
45 °FPassing clouds.23 mph71%29.53 "HgN/A
11:20 PM45 °FPassing clouds.22 mph71%29.53 "HgN/A
10:50 PM43 °FClear.23 mph76%29.56 "Hg10 mi
10:20 PM45 °FClear.21 mph71%29.59 "Hg10 mi
9:50 PM43 °FPassing clouds.18 mph76%29.59 "HgN/A
9:20 PM43 °FPassing clouds.18 mph76%29.59 "HgN/A
8:50 PM43 °FPassing clouds.18 mph71%29.62 "HgN/A
8:20 PM43 °FPassing clouds.17 mph71%29.62 "HgN/A
7:50 PM45 °FPassing clouds.16 mph66%29.62 "HgN/A
7:20 PM45 °FPassing clouds.15 mph66%29.62 "HgN/A
6:50 PM45 °FPassing clouds.14 mph66%29.62 "HgN/A
6:20 PM45 °FPassing clouds.15 mph66%29.62 "HgN/A
5:50 PM45 °FPassing clouds.17 mph66%29.65 "HgN/A
5:20 PM46 °FPassing clouds.17 mph57%29.62 "HgN/A
4:50 PM46 °FScattered clouds.18 mph57%29.62 "HgN/A
4:20 PM46 °FScattered clouds.16 mph62%29.62 "HgN/A
3:50 PM46 °FScattered clouds.18 mph62%29.62 "HgN/A
3:20 PM46 °FScattered clouds.18 mph62%29.62 "HgN/A
2:50 PM46 °FScattered clouds.21 mph66%29.59 "HgN/A
2:20 PM45 °FPartly sunny.21 mph71%29.59 "HgN/A
1:50 PM46 °FPartly sunny.20 mph66%29.59 "HgN/A
1:20 PM46 °FPartly sunny.18 mph66%29.59 "HgN/A
12:50 PM46 °FPartly sunny.18 mph71%29.59 "HgN/A
12:20 PM46 °FPartly sunny.18 mph66%29.56 "HgN/A
11:50 AM45 °FScattered clouds.21 mph76%29.56 "HgN/A
11:20 AM45 °FScattered clouds.20 mph76%29.56 "HgN/A
Weather by CustomWeather, © 2016

See weather overviewHow to use our weather pages